RH
30 30 30 30 28 24 22 22 21 20 26 60 55 72 78 91 93 84 80 89 73 70 84 89 91 82 69 65 73 76 76 74 72
36 36 34 30 29 28 24 20 17 17 18 21 39 44 59 78 85 100 100 94 89 91 88 87 89 92 96 97 80 77 81 78 78
35 32 31 28 25 23 22 22 21 19 16 15 16 25 42 56 77 77 94 100 100 96 91 89 92 92 80 93 100 99 91 87 84
38 32 29 25 21 20 19 21 20 19 18 18 16 15 16 35 60 73 75 78 97 100 100 95 91 89 94 90 76 95 100 100 99
38 34 28 23 24 24 24 18 16 15 13 11 14 17 18 15 16 32 55 69 64 76 97 100 100 95 91 96 91 85 90 95 99
44 32 27 26 26 24 17 14 9 8 8 10 9 9 11 13 17 17 20 25 49 58 61 74 91 100 98 89 84 84 90 93 88
33 30 26 20 19 13 12 10 13 15 15 15 15 15 14 13 12 15 20 20 21 27 47 51 68 79 90 100 98 86 83 85 92
28 21 17 15 12 12 16 16 15 14 16 16 16 17 16 16 16 14 12 14 18 24 29 27 45 64 71 85 97 100 95 86 86
17 16 14 12 14 16 14 14 18 22 26 25 25 24 20 17 14 14 14 12 10 18 22 39 28 37 60 68 85 98 100 100 99
15 14 14 18 16 16 22 27 31 34 40 39 34 31 25 21 17 13 10 9 8 8 13 18 39 43 30 49 61 85 100 99 100
15 16 20 19 22 30 34 39 42 42 40 36 34 30 27 22 15 9 7 7 6 6 7 11 16 46 64 40 44 63 75 97 100
19 23 21 28 36 37 40 42 37 41 46 41 37 32 25 17 10 7 7 6 6 6 5 7 10 16 62 89 55 66 75 75 92
26 21 32 37 39 48 46 48 47 41 37 32 31 26 20 14 8 5 4 3 3 4 4 5 8 18 20 79 100 85 99 100 96
22 30 39 39 56 55 46 46 51 68 37 31 29 26 18 10 5 3 2 2 3 3 3 5 8 10 24 65 95 98 98 100 100
31 41 39 55 55 46 49 45 65 73 61 32 30 28 20 8 4 3 2 2 2 3 3 5 6 10 13 76 100 100 82 98 88
40 41 49 63 51 50 74 55 38 64 73 40 27 30 26 11 4 3 2 2 2 3 3 5 6 8 14 59 100 100 100 100 100
42 43 64 62 54 62 68 60 61 64 74 45 32 31 32 18 8 4 3 3 3 4 4 6 8 10 16 46 100 100 100 85 100
47 59 67 64 62 57 72 77 71 82 69 47 41 38 32 28 15 6 5 4 4 4 6 8 11 14 17 31 100 100 100 100 100
53 69 63 59 62 63 60 64 76 95 69 52 46 41 36 30 30 14 8 7 6 7 7 9 12 13 20 27 59 100 87 100 100
59 70 59 83 86 68 63 68 62 78 70 50 55 52 51 41 28 26 14 11 12 14 15 15 13 14 22 38 62 57 100 77 52
Wind_Speed
37 39 40 41 42 42 40 40 39 40 41 43 45 44 44 46 46 47 49 48 50 52 53 52 51 50 49 48 48 48 47 46 44
44 45 47 48 49 49 48 47 46 46 46 47 49 48 47 49 51 49 50 50 51 52 53 54 56 55 54 52 51 50 49 48 48
51 51 52 53 53 53 52 52 52 51 52 53 53 53 51 51 52 55 56 54 54 53 52 53 51 54 56 57 56 54 53 52 51
55 55 55 55 54 55 57 58 60 60 60 60 59 59 59 57 56 57 59 61 59 58 57 55 54 51 52 55 56 56 57 57 55
58 58 59 59 60 62 64 64 65 66 66 66 67 67 65 65 66 65 65 65 63 63 62 61 58 57 55 52 52 54 55 57 58
64 64 64 66 67 69 68 66 65 64 63 62 64 68 71 72 73 72 73 73 71 68 66 67 65 62 60 58 55 55 55 56 57
69 69 71 71 71 68 64 62 61 61 62 62 63 65 67 70 75 79 82 81 81 77 73 71 69 67 62 62 59 57 55 54 54
74 74 72 71 65 61 60 58 57 55 55 54 56 59 63 67 73 75 85 90 89 86 83 78 74 71 70 67 64 61 58 55 54
74 73 70 63 58 55 52 47 40 36 36 40 44 50 55 61 70 78 82 88 93 93 90 83 78 76 72 71 67 65 61 56 55
71 68 62 54 49 41 33 25 26 27 28 33 39 48 56 60 64 70 78 82 86 90 95 93 82 78 78 73 71 67 64 61 57
65 59 52 43 32 22 20 19 20 20 27 35 40 48 57 65 71 74 71 72 73 78 87 94 93 80 72 76 73 69 68 63 61
55 50 38 26 21 18 15 16 20 19 26 31 39 47 59 70 75 68 64 64 65 69 71 82 92 90 73 69 70 67 66 66 64
48 35 23 19 16 11 13 13 17 21 26 34 42 52 62 72 71 65 55 55 58 65 65 70 80 89 87 65 58 61 60 57 62
37 21 18 14 12 12 10 12 20 29 32 37 43 53 63 68 60 49 43 42 44 54 58 61 72 80 83 71 52 45 57 57 59
20 17 15 15 13 11 10 12 19 29 35 38 43 52 62 62 50 40 35 32 32 39 47 56 62 72 81 65 48 41 38 44 59
19 18 16 15 13 8 12 17 20 28 36 43 49 54 62 61 45 32 26 23 21 25 31 44 56 67 72 69 63 66 56 51 58
19 19 17 15 11 8 13 20 24 29 35 44 49 53 58 62 49 31 22 16 11 17 23 34 44 56 67 80 77 79 69 60 61
19 18 17 15 11 10 14 20 25 31 35 42 48 52 52 57 53 35 22 11 4 9 16 30 43 52 65 81 78 72 67 66 64
18 17 19 15 13 14 16 19 23 29 35 40 46 49 52 50 52 41 23 12 11 4 7 21 39 49 56 72 82 85 83 74 68
20 20 19 14 15 17 18 19 23 27 33 37 41 44 47 50 47 46 32 20 16 7 6 15 25 38 52 66 79 82 74 84 80
Wind_Direction
296 295 295 294 293 290 284 279 273 263 262 259 259 258 259 261 262 263 263 260 257 255 254 252 251 251 252 252 253 255 255 258 260
295 296 295 294 293 291 290 287 281 273 265 260 258 257 255 257 258 258 258 259 259 258 257 254 253 253 252 253 253 254 255 258 259
296 296 295 293 291 289 286 285 283 278 273 266 261 254 253 251 255 255 255 255 255 255 256 256 253 253 253 253 254 254 254 255 257
298 296 293 291 289 289 288 286 285 283 280 274 267 262 255 251 250 252 253 251 250 251 252 251 252 253 253 253 253 253 254 254 256
300 298 296 294 294 294 293 289 286 283 279 274 271 266 262 257 253 251 254 252 250 247 249 250 249 250 251 251 252 253 253 254 255
300 299 298 297 297 297 295 291 288 284 281 276 271 267 263 260 256 253 250 253 252 248 246 247 248 248 249 250 251 251 252 254 255
300 299 299 300 299 298 294 291 287 284 280 276 273 269 265 261 257 255 253 251 250 250 246 245 245 247 247 248 249 250 252 253 255
300 301 302 302 300 296 294 291 287 283 280 279 274 269 266 263 259 257 253 250 247 247 247 245 244 243 243 245 247 247 249 251 254
302 302 301 300 299 297 294 292 290 286 282 282 282 277 273 266 260 255 253 252 248 246 245 244 242 242 243 242 244 247 245 246 251
301 300 300 301 299 297 294 294 295 296 294 289 288 283 279 275 270 265 261 258 254 246 243 244 241 241 241 242 242 243 245 246 247
299 299 302 300 293 288 291 291 295 303 303 297 298 291 287 282 279 275 273 269 263 255 245 241 241 238 240 239 239 241 243 245 247
297 300 297 286 283 284 282 288 300 318 327 322 316 308 297 290 289 290 283 271 257 252 245 241 239 238 235 237 237 239 241 243 245
297 294 277 273 273 259 276 297 313 323 327 322 322 312 304 299 300 297 283 269 256 248 244 237 235 234 234 232 228 237 239 242 245
293 269 259 260 246 266 273 304 334 334 330 333 330 322 315 312 310 301 287 269 256 245 243 235 231 230 228 227 227 235 242 246 245
261 243 244 241 243 262 294 316 342 340 339 340 344 335 327 325 320 307 294 279 262 250 241 232 229 224 223 214 215 225 240 270 248
232 231 228 234 251 275 324 331 335 346 339 344 349 352 342 338 333 320 307 291 265 246 232 226 225 223 215 208 207 204 189 219 241
221 224 227 235 254 294 327 333 340 343 341 347 349 355 354 349 345 341 330 304 264 229 219 219 218 218 212 209 209 208 212 211 236
217 221 236 235 255 292 319 332 338 342 343 347 351 357 4 359 355 354 350 323 259 210 202 206 207 212 209 209 212 216 218 215 222
214 225 227 236 272 293 308 322 335 339 343 346 350 358 4 11 9 5 12 46 81 59 202 208 208 212 208 211 215 221 220 217 226
223 232 235 257 277 291 301 318 325 334 339 347 351 359 4 10 16 16 10 30 51 72 172 208 220 217 212 213 218 223 228 231 234